Time,TemperatureF,DewpointF,PressureIn,WindDirection,WindDirectionDegrees,WindSpeedMPH,WindSpeedGustMPH,Humidity,HourlyPrecipIn,Conditions,Clouds,dailyrainin,SoftwareType,DateUTC
2013-09-28 00:10:00,68.4,61.3,29.59,SSE,157,4.7,-999.0,78,-99.99,,,0.00,Acu-Link.com,2013-09-28 05:10:00,
2013-09-28 00:25:00,68.2,61.1,29.59,SE,135,7.3,-999.0,78,-99.99,,,0.00,Acu-Link.com,2013-09-28 05:25:00,
2013-09-28 00:40:00,68.2,61.1,29.58,South,180,6.8,-999.0,78,-99.99,,,0.00,Acu-Link.com,2013-09-28 05:40:00,
2013-09-28 00:55:00,68.2,61.1,29.57,South,180,6.8,-999.0,78,-99.99,,,0.00,Acu-Link.com,2013-09-28 05:55:00,
2013-09-28 01:10:00,68.4,61.3,29.57,SSE,157,6.3,-999.0,78,-99.99,,,0.00,Acu-Link.com,2013-09-28 06:10:00,
2013-09-28 01:26:00,67.8,61.0,29.57,SE,135,3.2,-999.0,79,-99.99,,,0.00,Acu-Link.com,2013-09-28 06:26:00,
2013-09-28 01:41:00,67.5,61.1,29.57,SSW,202,5.8,-999.0,80,-99.99,,,0.00,Acu-Link.com,2013-09-28 06:41:00,
2013-09-28 01:56:00,67.1,61.1,29.57,South,180,6.3,-999.0,81,-99.99,,,0.00,Acu-Link.com,2013-09-28 06:56:00,
2013-09-28 02:11:00,66.7,61.0,29.57,South,180,3.2,-999.0,82,-99.99,,,0.00,Acu-Link.com,2013-09-28 07:11:00,
2013-09-28 02:27:00,66.6,60.9,29.57,SSE,157,5.8,-999.0,82,-99.99,,,0.00,Acu-Link.com,2013-09-28 07:27:00,
2013-09-28 02:42:00,66.0,61.0,29.56,South,180,5.3,-999.0,84,-99.99,,,0.00,Acu-Link.com,2013-09-28 07:42:00,
2013-09-28 02:57:00,65.5,60.5,29.55,South,180,4.2,-999.0,84,-99.99,,,0.00,Acu-Link.com,2013-09-28 07:57:00,
2013-09-28 03:13:00,65.5,60.9,29.55,SE,135,3.7,-999.0,85,-99.99,,,0.00,Acu-Link.com,2013-09-28 08:13:00,
2013-09-28 03:28:00,65.3,60.7,29.55,SSE,157,4.2,-999.0,85,-99.99,,,0.00,Acu-Link.com,2013-09-28 08:28:00,
2013-09-28 03:44:00,65.7,61.1,29.55,SSE,157,6.8,-999.0,85,-99.99,,,0.00,Acu-Link.com,2013-09-28 08:44:00,
2013-09-28 03:59:00,65.7,61.1,29.55,SSE,157,7.8,-999.0,85,-99.99,,,0.00,Acu-Link.com,2013-09-28 08:59:00,
2013-09-28 04:14:00,65.7,61.1,29.55,SSE,157,6.3,-999.0,85,-99.99,,,0.00,Acu-Link.com,2013-09-28 09:14:00,
2013-09-28 04:30:00,65.7,61.1,29.55,South,180,5.3,-999.0,85,-99.99,,,0.00,Acu-Link.com,2013-09-28 09:30:00,
2013-09-28 04:45:00,65.7,61.4,29.55,South,180,5.3,-999.0,86,-99.99,,,0.00,Acu-Link.com,2013-09-28 09:45:00,
2013-09-28 05:00:00,65.5,61.5,29.54,SSE,157,4.7,-999.0,87,-99.99,,,0.00,Acu-Link.com,2013-09-28 10:00:00,
2013-09-28 05:15:00,65.5,61.5,29.54,SSE,157,6.3,-999.0,87,-99.99,,,0.00,Acu-Link.com,2013-09-28 10:15:00,
2013-09-28 05:30:00,65.3,61.7,29.54,SSE,157,4.7,-999.0,88,-99.99,,,0.00,Acu-Link.com,2013-09-28 10:30:00,
2013-09-28 05:46:00,65.3,61.7,29.53,SSE,157,5.3,-999.0,88,-99.99,,,0.00,Acu-Link.com,2013-09-28 10:46:00,
2013-09-28 06:01:00,65.7,62.0,29.53,NNW,337,4.7,-999.0,88,-99.99,,,0.00,Acu-Link.com,2013-09-28 11:01:00,
2013-09-28 06:32:00,65.8,62.1,29.53,SE,135,4.2,-999.0,88,-99.99,,,0.00,Acu-Link.com,2013-09-28 11:32:00,
2013-09-28 06:47:00,67.8,62.4,29.53,SSE,157,9.9,-999.0,83,-99.99,,,0.00,Acu-Link.com,2013-09-28 11:47:00,
2013-09-28 07:03:00,67.8,62.4,29.52,South,180,9.4,-999.0,83,-99.99,,,0.00,Acu-Link.com,2013-09-28 12:03:00,
2013-09-28 07:18:00,68.0,62.6,29.52,SSE,157,7.8,-999.0,83,-99.99,,,0.00,Acu-Link.com,2013-09-28 12:18:00,
2013-09-28 07:33:00,68.2,62.8,29.53,SSW,202,6.3,-999.0,83,-99.99,,,0.00,Acu-Link.com,2013-09-28 12:33:00,
2013-09-28 07:48:00,66.2,63.5,29.53,SSE,157,7.3,-999.0,91,-99.99,,,0.02,Acu-Link.com,2013-09-28 12:48:00,
2013-09-28 08:03:00,65.7,63.6,29.53,SSE,157,7.8,-999.0,93,-99.99,,,0.06,Acu-Link.com,2013-09-28 13:03:00,
2013-09-28 08:19:00,65.5,63.7,29.52,SSE,157,6.3,-999.0,94,-99.99,,,0.08,Acu-Link.com,2013-09-28 13:19:00,
2013-09-28 08:34:00,65.8,64.0,29.52,South,180,8.3,-999.0,94,-99.99,,,0.08,Acu-Link.com,2013-09-28 13:34:00,
2013-09-28 08:49:00,66.0,64.2,29.52,SSW,202,8.3,-999.0,94,-99.99,,,0.08,Acu-Link.com,2013-09-28 13:49:00,
2013-09-28 09:04:00,66.4,64.3,29.51,SSE,157,8.3,-999.0,93,-99.99,,,0.08,Acu-Link.com,2013-09-28 14:04:00,
2013-09-28 09:19:00,67.8,65.1,29.51,SSE,157,6.8,-999.0,91,-99.99,,,0.08,Acu-Link.com,2013-09-28 14:19:00,
2013-09-28 09:35:00,69.8,65.7,29.51,South,180,8.3,-999.0,87,-99.99,,,0.08,Acu-Link.com,2013-09-28 14:35:00,
2013-09-28 09:50:00,69.6,65.6,29.51,SSE,157,7.3,-999.0,87,-99.99,,,0.08,Acu-Link.com,2013-09-28 14:50:00,
2013-09-28 10:05:00,69.8,65.4,29.51,SSE,157,9.4,-999.0,86,-99.99,,,0.08,Acu-Link.com,2013-09-28 15:05:00,
2013-09-28 10:20:00,70.0,65.6,29.52,SSE,157,3.7,-999.0,86,-99.99,,,0.08,Acu-Link.com,2013-09-28 15:20:00,
2013-09-28 10:35:00,69.4,65.0,29.53,South,180,7.3,-999.0,86,-99.99,,,0.08,Acu-Link.com,2013-09-28 15:35:00,
2013-09-28 10:52:00,68.7,65.6,29.52,South,180,6.8,-999.0,90,-99.99,,,0.08,Acu-Link.com,2013-09-28 15:52:00,
2013-09-28 11:07:00,67.8,65.7,29.53,South,180,4.2,-999.0,93,-99.99,,,0.10,Acu-Link.com,2013-09-28 16:07:00,
2013-09-28 11:22:00,67.3,65.8,29.53,SE,135,5.3,-999.0,95,-99.99,,,0.14,Acu-Link.com,2013-09-28 16:22:00,
2013-09-28 11:37:00,67.1,65.9,29.53,SSW,202,2.2,-999.0,96,-99.99,,,0.16,Acu-Link.com,2013-09-28 16:37:00,
2013-09-28 11:52:00,67.1,65.9,29.53,North,0,2.7,-999.0,96,-99.99,,,0.18,Acu-Link.com,2013-09-28 16:52:00,
2013-09-28 12:08:00,61.7,58.1,29.57,North,0,4.7,-999.0,88,-99.99,,,0.19,Acu-Link.com,2013-09-28 17:08:00,
2013-09-28 12:23:00,58.1,56.1,29.59,NW,315,2.7,-999.0,93,-99.99,,,0.20,Acu-Link.com,2013-09-28 17:23:00,
2013-09-28 12:38:00,57.0,55.6,29.59,West,270,2.2,-999.0,95,-99.99,,,0.20,Acu-Link.com,2013-09-28 17:38:00,
2013-09-28 12:53:00,56.5,55.4,29.61,NW,315,7.8,-999.0,96,-99.99,,,0.20,Acu-Link.com,2013-09-28 17:53:00,
2013-09-28 13:08:00,56.5,55.4,29.61,NW,315,3.7,-999.0,96,-99.99,,,0.20,Acu-Link.com,2013-09-28 18:08:00,
2013-09-28 13:24:00,56.1,55.0,29.61,WNW,292,4.7,-999.0,96,-99.99,,,0.20,Acu-Link.com,2013-09-28 18:24:00,
2013-09-28 13:39:00,55.9,54.8,29.62,NNE,22,4.2,-999.0,96,-99.99,,,0.20,Acu-Link.com,2013-09-28 18:39:00,
2013-09-28 13:54:00,55.9,55.1,29.61,WNW,292,3.2,-999.0,97,-99.99,,,0.20,Acu-Link.com,2013-09-28 18:54:00,
2013-09-28 14:10:00,56.3,55.5,29.61,WNW,292,2.2,-999.0,97,-99.99,,,0.21,Acu-Link.com,2013-09-28 19:10:00,
2013-09-28 14:25:00,57.0,55.3,29.62,WNW,292,2.7,-999.0,94,-99.99,,,0.21,Acu-Link.com,2013-09-28 19:25:00,
2013-09-28 15:34:00,59.9,55.7,29.66,WNW,292,1.7,-999.0,86,-99.99,,,0.21,Acu-Link.com,2013-09-28 20:34:00,
2013-09-28 15:49:00,60.4,54.5,29.66,WNW,292,2.7,-999.0,81,-99.99,,,0.21,Acu-Link.com,2013-09-28 20:49:00,
2013-09-28 16:05:00,60.8,54.6,29.66,North,0,3.2,-999.0,80,-99.99,,,0.21,Acu-Link.com,2013-09-28 21:05:00,
2013-09-28 16:20:00,61.0,54.8,29.66,West,270,1.7,-999.0,80,-99.99,,,0.21,Acu-Link.com,2013-09-28 21:20:00,
2013-09-28 16:35:00,61.5,55.3,29.66,West,270,2.7,-999.0,80,-99.99,,,0.21,Acu-Link.com,2013-09-28 21:35:00,
2013-09-28 16:51:00,61.5,54.2,29.67,WNW,292,3.7,-999.0,77,-99.99,,,0.21,Acu-Link.com,2013-09-28 21:51:00,
2013-09-28 17:06:00,61.9,53.9,29.67,NNW,337,2.2,-999.0,75,-99.99,,,0.21,Acu-Link.com,2013-09-28 22:06:00,
2013-09-28 17:21:00,61.9,53.1,29.68,WNW,292,3.7,-999.0,73,-99.99,,,0.21,Acu-Link.com,2013-09-28 22:21:00,
2013-09-28 17:36:00,61.9,52.0,29.68,NW,315,5.3,-999.0,70,-99.99,,,0.21,Acu-Link.com,2013-09-28 22:36:00,
2013-09-28 17:51:00,61.3,51.4,29.69,NE,45,1.1,-999.0,70,-99.99,,,0.21,Acu-Link.com,2013-09-28 22:51:00,
2013-09-28 18:07:00,60.8,52.1,29.69,NNE,22,0.0,-999.0,73,-99.99,,,0.21,Acu-Link.com,2013-09-28 23:07:00,
2013-09-28 18:22:00,60.3,52.3,29.69,South,180,0.0,-999.0,75,-99.99,,,0.21,Acu-Link.com,2013-09-28 23:22:00,
2013-09-28 18:37:00,59.4,51.8,29.70,ENE,67,0.0,-999.0,76,-99.99,,,0.21,Acu-Link.com,2013-09-28 23:37:00,
2013-09-28 18:52:00,58.5,52.0,29.70,South,180,0.0,-999.0,79,-99.99,,,0.21,Acu-Link.com,2013-09-28 23:52:00,
2013-09-28 19:07:00,57.2,51.4,29.70,ENE,67,0.0,-999.0,81,-99.99,,,0.21,Acu-Link.com,2013-09-29 00:07:00,
2013-09-28 19:22:00,56.1,51.3,29.70,ENE,67,0.0,-999.0,84,-99.99,,,0.21,Acu-Link.com,2013-09-29 00:22:00,
2013-09-28 19:38:00,54.7,51.2,29.70,ENE,67,0.0,-999.0,88,-99.99,,,0.21,Acu-Link.com,2013-09-29 00:38:00,
2013-09-28 19:53:00,53.4,51.1,29.71,ENE,67,0.0,-999.0,92,-99.99,,,0.21,Acu-Link.com,2013-09-29 00:53:00,
2013-09-28 20:08:00,52.9,50.9,29.71,ENE,67,0.0,-999.0,93,-99.99,,,0.21,Acu-Link.com,2013-09-29 01:08:00,
2013-09-28 20:23:00,52.2,50.5,29.72,ENE,67,0.0,-999.0,94,-99.99,,,0.21,Acu-Link.com,2013-09-29 01:23:00,
2013-09-28 20:38:00,51.4,50.3,29.73,North,0,0.0,-999.0,96,-99.99,,,0.21,Acu-Link.com,2013-09-29 01:38:00,
2013-09-28 20:54:00,51.1,50.0,29.74,North,0,1.1,-999.0,96,-99.99,,,0.21,Acu-Link.com,2013-09-29 01:54:00,
2013-09-28 21:09:00,50.4,49.6,29.74,North,0,0.0,-999.0,97,-99.99,,,0.21,Acu-Link.com,2013-09-29 02:09:00,
2013-09-28 21:24:00,49.8,49.0,29.74,North,0,0.0,-999.0,97,-99.99,,,0.21,Acu-Link.com,2013-09-29 02:24:00,
2013-09-28 21:39:00,49.5,48.7,29.75,North,0,0.0,-999.0,97,-99.99,,,0.21,Acu-Link.com,2013-09-29 02:39:00,
2013-09-28 21:54:00,49.1,48.6,29.76,North,0,0.0,-999.0,98,-99.99,,,0.21,Acu-Link.com,2013-09-29 02:54:00,
2013-09-28 22:10:00,48.7,48.2,29.76,North,0,0.0,-999.0,98,-99.99,,,0.21,Acu-Link.com,2013-09-29 03:10:00,
2013-09-28 22:25:00,48.2,47.7,29.76,North,0,0.0,-999.0,98,-99.99,,,0.21,Acu-Link.com,2013-09-29 03:25:00,
2013-09-28 22:40:00,48.0,47.7,29.76,North,0,0.0,-999.0,99,-99.99,,,0.21,Acu-Link.com,2013-09-29 03:40:00,
2013-09-28 22:55:00,47.7,47.4,29.77,North,0,0.0,-999.0,99,-99.99,,,0.21,Acu-Link.com,2013-09-29 03:55:00,
2013-09-28 23:10:00,47.3,47.0,29.77,North,0,0.0,-999.0,99,-99.99,,,0.21,Acu-Link.com,2013-09-29 04:10:00,
2013-09-28 23:26:00,47.1,46.8,29.77,North,0,0.0,-999.0,99,-99.99,,,0.21,Acu-Link.com,2013-09-29 04:26:00,
2013-09-28 23:41:00,46.6,46.3,29.77,North,0,0.0,-999.0,99,-99.99,,,0.21,Acu-Link.com,2013-09-29 04:41:00,
2013-09-28 23:56:00,46.4,46.1,29.78,North,0,0.0,-999.0,99,-99.99,,,0.21,Acu-Link.com,2013-09-29 04:56:00,